GFSNE_850_spd_000.txt.gz
Wind_Speed
24 22 24 26 25 26 27 31 33 36 38 43 41 40 39 41 39 36 39 48 42 46 41 43 43 43 43 41 42 40 39 41 40 41 43 35 44 37
23 25 25 26 27 27 28 31 31 32 36 40 43 40 42 39 39 41 43 42 41 40 43 32 34 39 42 43 43 44 39 37 35 37 38 37 42 36
24 25 26 27 28 29 30 30 30 31 33 44 37 45 44 43 43 42 39 41 42 45 40 37 41 37 34 38 43 43 39 35 31 30 31 33 36 38
27 27 28 28 29 29 29 30 32 33 34 38 42 44 43 43 42 43 43 41 43 42 41 38 37 35 33 34 41 42 40 36 30 28 26 31 33 35
27 28 29 29 30 29 30 33 33 34 35 39 43 41 42 42 43 43 43 43 40 38 36 35 32 34 36 33 34 41 41 37 35 33 28 29 31 33
28 27 28 28 28 30 32 31 34 36 39 38 39 41 41 46 41 41 42 41 43 39 41 31 36 31 33 33 32 35 34 32 37 36 31 27 27 33
27 27 27 27 28 28 31 34 36 40 40 40 40 39 44 42 41 41 42 44 47 46 38 30 33 32 38 40 41 40 39 36 31 32 35 37 34 32
28 29 28 28 27 31 31 33 34 38 43 39 37 40 44 42 43 43 42 43 42 37 32 41 45 42 41 41 37 32 35 35 34 36 38 38 42 39
27 29 30 28 31 32 37 35 39 36 31 38 41 43 45 43 44 47 43 42 45 45 41 46 38 37 40 38 37 36 32 31 32 33 35 37 38 43
26 28 29 31 31 35 39 45 31 33 37 41 40 40 42 44 43 44 45 48 45 40 29 37 37 40 39 36 27 25 32 32 39 40 36 35 35 39
27 27 30 33 33 37 39 35 38 43 44 34 39 38 40 37 32 36 40 37 38 36 30 35 34 34 31 41 31 23 26 29 32 30 29 31 31 33
30 31 31 33 35 36 43 41 38 43 43 45 41 36 30 31 29 30 37 38 36 39 27 30 36 31 23 17 17 22 23 22 15 16 15 18 23 24
36 37 36 35 35 43 42 37 35 41 42 38 37 37 35 35 34 36 35 35 38 39 35 31 33 31 27 31 33 28 24 10 12 12 13 9 14 21
36 37 36 38 43 40 33 32 36 34 35 36 38 38 39 38 38 37 34 32 31 35 35 30 31 27 25 28 28 24 20 8 16 14 18 21 23 31
35 34 39 42 38 31 31 31 32 32 34 37 38 39 40 39 40 38 34 31 31 30 27 21 22 23 24 26 25 17 16 2 19 17 22 24 33 38
35 37 40 34 31 30 31 34 32 32 32 37 39 41 40 40 40 37 35 31 30 25 20 17 15 14 19 18 15 15 13 5 16 20 21 18 19 21
39 40 33 32 33 34 35 34 35 35 37 38 39 40 41 40 37 32 31 28 21 18 14 12 7 5 7 8 8 10 10 12 21 20 20 25 25 28
35 30 32 32 34 35 36 38 38 37 39 41 39 39 38 36 34 32 25 18 14 12 12 10 8 3 3 8 6 9 15 22 26 26 27 31 29 27
28 29 31 33 35 36 37 38 40 41 41 38 38 37 32 30 28 25 20 15 13 15 16 14 11 8 9 9 13 15 24 26 28 29 28 27 27 22
28 30 32 34 35 36 37 39 41 41 38 37 36 31 28 27 24 21 17 17 14 13 13 15 13 11 12 10 15 16 22 26 28 27 27 27 27 27
30 32 34 35 36 36 36 40 40 38 36 35 32 29 25 24 19 16 15 12 12 12 13 13 12 12 16 17 19 17 15 17 19 20 20 20 21 20
32 34 34 34 34 36 40 40 39 37 34 32 29 25 21 19 17 17 15 14 12 11 9 9 8 8 10 13 17 19 19 17 16 16 16 16 14 10
32 32 34 34 36 39 40 38 35 32 32 30 27 24 20 19 18 16 15 12 11 9 7 7 9 10 13 15 16 17 18 17 16 14 10 10 11 10

GFSNE_850_spd_003.txt.gz
Wind_Speed
26 27 26 30 30 31 32 32 34 38 44 44 41 40 31 42 31 38 44 45 43 44 48 42 42 45 45 38 37 38 37 36 35 35 38 36 37 36
26 28 29 30 31 32 33 32 32 35 42 42 43 43 43 38 40 38 37 43 43 39 43 43 44 46 43 45 46 42 45 35 37 37 35 36 30 33
28 29 31 31 32 32 32 34 34 32 36 46 42 43 44 43 42 42 38 40 41 43 43 42 43 44 45 43 43 39 40 36 32 33 32 33 28 31
29 30 31 31 32 31 32 32 32 34 37 40 42 44 43 43 42 40 41 42 40 39 40 42 43 42 41 41 39 36 39 35 30 33 35 33 30 29
29 30 31 31 31 31 30 32 35 35 35 38 44 43 42 41 44 40 40 42 40 41 40 40 40 40 42 38 37 34 32 31 32 32 32 34 34 30
29 30 29 29 29 30 33 32 31 36 39 39 40 42 41 42 37 40 48 45 48 44 44 42 38 40 34 31 36 38 35 36 33 30 30 30 30 33
30 27 27 28 29 28 29 32 35 39 39 40 43 42 38 40 41 47 46 46 47 42 40 46 40 41 43 38 37 36 34 36 31 30 29 31 31 34
28 29 28 28 27 28 30 33 34 38 42 47 36 35 40 43 49 42 46 44 45 42 37 50 44 40 40 36 35 31 35 32 32 33 33 33 33 34
28 29 30 29 29 34 35 35 36 40 36 39 42 40 46 43 49 47 42 45 46 50 42 49 37 41 33 41 36 35 36 32 32 30 32 34 35 36
27 28 30 31 34 34 37 41 43 42 41 41 40 43 44 47 43 45 46 48 46 41 35 39 41 35 44 36 42 36 34 32 29 29 32 34 37 40
28 28 31 33 35 34 37 44 46 47 41 36 39 40 39 38 37 38 41 39 40 37 38 37 37 38 44 42 37 29 27 26 30 33 36 36 37 39
33 35 32 33 33 35 40 45 44 42 41 44 42 39 37 35 31 32 37 39 38 41 36 37 40 36 36 33 15 27 38 33 30 27 27 29 31 33
38 37 36 36 37 39 42 39 37 40 41 39 39 39 37 35 37 38 37 37 40 41 40 34 38 36 33 35 31 39 35 29 27 9 3 13 14 20
37 38 39 38 38 42 35 34 36 35 39 37 37 38 38 39 42 39 37 36 36 38 36 32 36 35 33 30 32 33 31 20 20 2 10 7 10 15
37 38 39 38 39 32 35 33 32 35 34 36 38 39 41 42 40 40 39 35 33 31 29 26 25 25 25 27 28 29 22 20 6 9 7 13 21 28
40 39 39 36 31 35 33 34 34 33 33 36 38 41 40 39 40 38 37 36 36 30 21 18 16 15 15 20 21 16 12 10 5 11 16 19 26 34
38 37 33 33 36 34 35 35 35 35 36 39 40 39 39 39 37 33 34 30 20 21 21 18 12 9 5 13 7 5 5 1 12 13 15 22 23 25
35 30 33 33 33 35 36 38 38 38 40 40 38 38 39 36 34 32 29 23 20 21 23 24 17 7 7 4 4 3 4 13 17 22 25 30 31 29
29 31 31 33 35 37 37 38 41 42 41 39 39 38 34 32 31 31 25 21 21 22 22 22 17 11 10 9 12 10 15 20 24 29 31 35 36 33
30 31 33 35 37 38 39 42 42 42 40 38 36 32 30 27 26 26 25 23 22 22 20 19 16 17 17 16 15 13 15 23 27 31 32 33 33 32
32 34 35 36 37 38 41 41 41 39 36 35 32 30 29 26 25 24 22 19 18 19 17 17 11 13 12 17 22 23 22 22 23 26 27 27 28 27
34 35 35 36 37 40 40 39 38 36 35 33 32 30 27 25 25 25 22 20 17 15 13 11 8 9 10 16 20 21 21 19 20 21 22 22 21 16
34 34 35 36 37 38 36 36 34 34 33 33 32 30 29 26 22 19 18 14 14 13 9 9 10 13 14 14 19 21 19 18 15 14 13 10 6 13

GFSNE_850_spd_006.txt.gz
Wind_Speed
31 31 33 34 35 33 33 35 35 43 47 47 46 42 36 40 40 35 42 41 41 43 40 40 41 41 42 43 44 45 45 44 44 42 38 35 33 34
30 34 36 35 35 36 35 33 34 35 44 49 43 44 47 41 43 40 43 40 40 38 40 39 40 41 41 42 42 43 42 41 40 39 38 35 33 32
33 38 36 35 36 34 36 35 35 32 34 49 48 47 45 47 51 43 40 38 40 36 36 40 41 42 42 43 44 43 42 42 38 34 34 33 32 31
39 38 37 36 36 36 34 35 33 36 39 40 45 45 46 47 44 49 42 36 35 37 43 43 46 43 42 43 43 44 42 40 35 33 27 30 30 30
41 40 37 35 35 34 34 36 41 38 35 36 47 45 43 44 50 46 38 39 41 44 43 38 39 40 38 39 39 41 39 37 35 34 30 30 28 28
42 37 34 29 31 34 37 37 33 33 38 39 43 41 44 46 37 39 46 47 49 42 47 38 37 41 37 36 38 38 36 34 35 33 30 31 29 30
41 30 28 29 31 31 32 34 35 40 42 41 39 41 40 41 39 43 44 48 54 45 34 53 40 43 43 40 33 35 31 29 33 31 30 29 32 31
34 32 32 32 31 31 32 36 37 38 40 41 42 43 47 47 42 41 47 48 48 37 41 50 42 44 40 36 37 34 31 34 35 35 33 30 33 32
32 33 35 32 34 39 39 38 39 36 37 40 44 45 43 45 47 48 43 41 45 48 45 45 40 38 42 46 39 35 34 34 35 34 30 31 30 29
33 32 33 38 38 36 41 40 46 45 41 42 40 40 43 44 43 41 43 48 47 39 34 41 39 45 42 41 39 39 32 31 29 31 30 31 31 33
35 32 33 38 36 37 40 44 44 42 48 40 36 36 40 38 34 37 40 40 44 40 36 39 42 42 43 42 37 28 24 26 32 35 32 31 35 38
36 34 38 35 38 38 40 43 41 45 44 39 44 47 38 38 33 33 37 39 42 43 36 38 42 39 37 32 12 31 36 36 31 26 25 29 33 38
38 43 40 38 39 39 41 38 38 42 40 44 42 41 41 38 39 39 37 38 42 43 40 36 40 40 32 34 36 30 34 36 24 19 16 18 17 32
39 40 44 41 38 39 35 36 35 36 39 39 39 39 40 42 41 38 36 35 35 38 36 31 37 36 38 30 29 38 33 20 17 19 10 5 9 16
38 41 39 36 35 36 36 33 33 37 37 39 39 41 42 40 39 38 35 32 32 29 25 22 21 22 22 23 28 32 26 20 17 11 6 2 4 12
42 39 35 33 35 33 36 37 37 36 35 38 39 42 41 40 39 35 35 35 35 29 28 25 25 18 16 14 22 19 15 15 13 8 11 6 9 12
38 38 37 39 37 37 38 38 39 38 40 40 40 41 40 38 36 33 34 34 31 29 32 31 24 12 7 11 19 14 13 8 7 13 23 25 29 32
34 35 36 35 36 37 38 41 43 41 41 41 39 39 38 35 34 33 31 33 32 32 32 29 22 13 4 2 10 11 7 12 15 22 28 33 36 34
33 34 34 35 37 38 40 42 43 43 40 37 37 36 34 33 33 33 33 34 33 29 27 23 22 17 15 13 15 10 12 19 23 31 37 39 40 39
34 33 35 38 38 40 42 42 42 40 37 37 35 34 34 34 36 35 33 32 27 24 24 20 18 17 15 14 17 17 17 27 32 36 38 40 41 38
35 36 37 37 39 41 42 40 38 36 34 35 36 36 35 36 36 31 27 24 20 21 19 18 14 11 9 22 25 24 21 24 27 32 34 38 39 39
36 36 36 37 38 39 38 36 36 35 35 37 37 37 36 34 28 23 23 23 20 18 13 11 11 11 14 22 23 22 21 20 20 20 25 27 21 23
35 34 35 36 36 37 35 34 34 32 34 36 37 35 34 28 23 21 20 18 15 15 10 11 11 12 15 18 20 19 17 18 18 20 22 21 25 30

GFSNE_850_spd_009.txt.gz
Wind_Speed
31 31 28 31 36 35 34 35 36 40 45 47 40 38 36 40 40 34 38 41 41 38 38 38 38 38 39 38 39 41 41 41 41 41 41 39 41 41
32 30 32 36 41 37 34 31 34 36 44 46 46 42 46 45 43 37 42 39 40 40 37 36 36 38 40 44 43 44 42 41 41 40 41 40 39 38
32 33 38 42 40 35 34 32 31 32 36 54 47 48 49 50 51 48 44 42 39 36 34 38 42 43 47 44 42 40 41 42 42 41 42 40 37 38
36 40 40 41 36 31 28 31 34 38 38 39 48 48 47 51 46 46 43 40 40 37 43 43 47 46 40 41 41 40 39 38 38 38 39 37 39 35
37 40 41 35 30 28 30 35 37 36 32 33 42 46 46 41 40 44 44 43 43 42 40 43 41 38 34 37 42 39 38 37 36 37 36 33 33 35
38 39 36 30 28 31 34 34 31 35 37 38 43 39 38 38 40 46 48 41 45 44 42 39 32 30 41 37 36 35 34 35 33 33 35 33 33 34
37 37 34 28 27 27 29 36 38 40 40 40 36 38 40 45 44 43 44 47 49 41 35 37 42 45 44 38 34 31 32 33 35 35 32 31 31 32
36 36 34 31 28 30 33 32 32 37 43 38 40 40 44 44 43 46 43 38 47 39 35 49 40 44 41 40 33 35 40 37 36 35 32 31 34 33
34 37 37 35 32 38 38 36 39 38 35 37 39 41 42 45 45 41 45 43 43 46 42 48 39 44 43 41 37 36 36 37 37 37 37 36 36 34
35 33 34 34 37 36 40 42 44 38 36 35 37 39 41 40 45 42 41 46 45 42 35 43 42 45 45 43 36 35 35 34 32 31 30 29 29 35
31 29 31 36 36 37 40 44 38 38 42 36 35 35 39 36 33 37 40 40 40 40 43 40 43 46 44 43 37 21 23 28 29 32 32 32 33 36
36 38 38 35 37 37 37 38 40 44 42 37 43 42 36 37 32 32 37 38 39 41 39 38 40 40 32 33 26 34 35 35 31 32 32 33 33 34
37 41 43 39 37 34 36 38 38 37 37 40 37 40 39 38 38 34 32 35 40 41 36 34 38 38 30 33 36 36 39 37 32 25 21 23 27 32
35 41 43 34 36 36 35 30 32 31 34 37 38 37 39 40 36 32 30 29 29 33 31 24 27 27 30 31 33 36 33 23 19 21 17 12 16 25
37 34 32 35 35 33 30 29 29 36 36 37 37 39 38 36 34 33 31 30 30 29 26 26 28 27 30 25 28 32 32 29 18 18 11 8 10 12
37 37 37 35 31 31 33 35 36 34 33 37 38 38 36 36 34 33 33 33 34 38 29 27 27 21 21 12 16 26 24 19 20 10 12 10 2 11
35 37 37 35 36 37 37 37 38 37 38 37 36 37 36 36 35 32 32 33 33 34 32 29 24 14 8 7 19 22 18 14 11 12 23 27 23 15
31 33 33 33 34 35 37 40 40 38 37 34 35 36 36 35 35 34 32 33 31 30 26 24 26 19 12 10 19 21 13 19 20 22 27 30 34 35
31 32 32 34 35 37 39 39 40 37 35 33 37 36 34 35 35 34 32 29 29 25 22 21 22 21 18 18 24 18 16 26 31 35 37 37 39 39
31 32 33 34 36 37 38 38 37 35 33 35 36 35 35 34 34 31 27 26 26 22 22 20 20 16 13 14 17 26 21 29 33 34 36 41 42 39
33 33 33 34 35 36 36 35 34 33 32 34 35 35 34 33 31 27 24 22 20 19 19 19 18 10 10 19 23 25 25 26 28 32 34 36 36 42
32 33 33 33 34 35 35 34 33 32 32 33 34 34 34 30 27 24 22 21 18 15 13 13 14 13 19 22 21 21 21 21 22 23 25 28 27 29
32 33 33 33 35 34 32 32 32 32 30 32 32 33 31 28 22 20 18 15 14 13 10 12 12 14 16 19 19 20 22 26 30 35 34 31 32 33

GFSNE_850_spd_012.txt.gz
Wind_Speed
29 28 28 29 32 35 37 34 31 38 44 39 33 31 30 36 37 33 34 36 33 34 38 38 38 39 39 39 37 39 40 40 42 42 43 42 43 43
28 29 31 34 36 37 35 31 28 31 41 42 43 39 40 39 41 35 37 34 34 38 39 40 41 42 41 40 43 44 44 45 46 46 46 44 45 42
29 32 34 35 38 36 30 27 27 28 35 48 46 45 45 47 46 41 37 33 34 41 42 46 44 42 43 44 45 46 46 44 43 43 43 43 43 45
31 32 34 36 36 34 29 28 30 31 34 39 45 48 45 49 40 38 37 42 38 40 39 36 39 41 43 43 42 41 40 39 39 41 40 41 40 39
31 32 35 35 36 31 28 30 31 29 32 37 44 47 51 42 32 40 41 44 45 41 36 35 38 37 36 37 37 36 41 39 39 40 40 40 40 40
31 33 34 34 34 31 31 30 32 39 41 42 42 40 40 39 41 40 47 43 47 40 36 39 39 36 37 38 40 40 39 37 38 37 37 37 39 39
32 32 32 33 30 28 29 34 37 39 41 35 45 43 29 42 40 43 43 48 36 42 44 43 36 40 46 42 40 37 35 35 34 35 36 38 38 38
32 31 34 32 31 29 32 32 32 38 41 42 32 41 41 40 42 43 40 42 46 41 34 47 41 45 44 44 40 36 36 37 38 40 40 39 39 41
33 32 31 32 32 37 37 36 39 38 31 35 38 37 40 43 39 42 43 41 43 48 43 46 45 42 45 44 39 37 37 37 38 40 40 40 41 40
28 29 31 34 34 34 37 41 34 38 41 37 36 39 39 41 43 40 41 44 43 45 37 39 46 46 43 41 39 36 34 34 34 35 35 36 36 38
29 30 31 33 36 34 37 38 39 44 43 33 33 35 38 34 32 33 38 39 40 42 40 37 44 45 44 44 39 29 25 31 33 36 37 37 35 32
35 36 36 34 33 31 39 38 43 39 37 38 42 38 32 33 30 30 34 37 38 42 39 35 42 41 31 36 29 39 38 35 33 35 35 35 34 34
36 38 40 33 33 36 34 34 31 35 36 37 33 37 37 36 33 31 30 31 37 40 36 34 38 39 33 35 42 43 39 32 36 28 24 24 27 33
34 39 35 34 35 33 28 26 28 30 31 34 36 37 38 37 35 33 30 28 28 32 32 28 35 37 39 38 39 40 32 33 29 23 27 22 18 22
35 32 34 33 32 28 26 26 28 32 33 35 36 36 36 36 35 35 32 30 30 30 28 27 28 29 29 32 35 33 36 35 19 29 21 17 15 12
34 37 37 31 27 26 29 31 32 31 30 34 34 35 36 36 36 33 34 33 34 33 28 24 23 24 23 19 20 29 29 25 25 19 14 11 6 6
32 34 32 31 32 31 32 34 34 33 33 32 32 36 36 36 35 33 32 32 32 34 33 27 25 18 13 14 21 29 26 21 20 18 18 21 17 5
28 29 31 31 32 33 35 37 36 33 33 31 33 35 35 35 35 34 31 31 30 31 28 26 26 23 19 20 24 31 23 23 25 26 27 26 35 18
26 29 30 31 32 33 35 36 36 34 31 30 33 34 34 33 33 32 31 29 29 28 24 23 22 23 24 19 29 31 28 27 29 33 33 32 33 44
28 29 30 30 31 34 36 35 34 33 31 32 33 33 33 32 32 30 29 27 26 24 23 22 20 20 16 16 17 30 31 30 31 34 34 36 39 42
29 29 28 30 32 34 34 33 32 32 31 31 31 33 32 31 29 27 26 22 21 21 21 20 18 12 12 20 25 29 29 30 30 30 30 35 40 45
28 29 29 30 33 33 32 31 31 31 30 29 31 33 30 28 27 25 22 20 19 18 15 14 12 13 17 21 23 25 28 31 33 36 38 41 35 33
28 28 29 32 33 32 30 31 30 29 28 29 32 32 28 27 23 21 18 15 16 15 12 12 13 13 15 17 19 24 26 28 30 34 36 33 38 40

GFSNE_850_spd_015.txt.gz
Wind_Speed
25 25 26 27 28 29 31 30 30 33 45 31 30 37 37 37 35 33 37 37 33 33 34 37 37 41 44 45 45 46 45 45 42 40 41 42 43 44
26 28 28 29 30 32 32 30 27 30 39 46 46 44 40 38 41 36 38 36 37 32 33 38 43 47 46 47 47 47 45 46 45 46 46 45 45 47
27 27 29 29 32 32 32 30 28 28 36 50 46 48 52 48 44 42 37 35 33 37 39 44 47 43 40 40 40 41 43 45 46 46 47 48 48 46
28 29 30 31 32 32 33 32 31 30 32 39 47 51 48 49 44 46 40 39 33 36 42 42 39 40 39 38 40 41 41 41 42 43 43 43 42 43
29 30 30 30 32 34 33 33 33 32 32 38 47 49 46 44 45 38 43 45 43 39 38 35 34 35 39 42 40 40 39 40 41 40 40 41 43 43
29 29 29 30 33 31 32 32 33 38 40 42 43 41 44 41 36 41 49 42 43 41 37 36 42 41 39 38 39 39 40 41 40 40 40 40 42 43
30 30 30 28 25 25 28 34 36 37 41 40 42 36 37 42 41 42 44 45 41 44 43 45 38 39 43 40 38 38 36 35 36 37 38 40 40 40
30 29 28 26 28 28 31 29 30 36 40 33 43 42 45 41 43 43 39 48 47 42 34 49 44 45 45 42 39 34 35 37 39 39 39 41 41 42
29 29 27 30 31 34 34 34 30 27 34 37 42 38 41 44 43 46 44 42 45 48 39 47 45 46 44 42 38 36 36 37 38 39 39 39 40 41
29 27 30 33 32 32 37 34 41 42 43 37 34 38 39 41 43 41 42 44 45 44 34 39 45 47 45 44 41 38 35 33 33 34 35 37 38 39
31 31 30 30 34 33 35 40 40 44 33 35 31 36 38 32 30 34 39 40 44 42 42 38 43 44 47 48 38 36 32 31 33 34 37 39 40 39
34 35 32 33 31 32 35 37 40 35 38 38 43 34 31 31 31 30 34 38 39 46 37 37 43 38 32 38 36 41 37 38 33 31 33 35 38 40
36 38 39 33 33 33 32 32 29 34 37 37 33 35 35 35 34 33 32 33 38 41 40 34 40 40 32 42 42 43 39 36 35 33 27 26 28 33
34 38 35 34 33 31 27 25 28 29 31 32 36 37 37 38 36 34 32 31 31 34 33 29 34 35 38 41 42 42 37 36 31 23 29 26 24 24
33 33 33 33 31 27 24 26 26 30 31 34 36 35 36 37 37 36 34 33 33 30 29 28 27 30 31 35 37 37 39 36 18 30 27 24 21 18
33 36 34 28 25 24 26 29 30 30 27 31 33 34 36 37 37 35 37 36 36 35 31 28 25 24 27 25 26 31 30 28 31 25 23 18 17 10
30 32 29 28 28 28 30 32 32 32 32 31 32 34 37 37 36 34 34 34 33 36 36 33 25 23 17 16 25 32 33 32 29 27 27 25 25 17
27 28 28 28 28 31 34 36 34 33 32 31 31 33 36 36 35 35 33 33 33 33 33 30 29 29 27 22 27 35 37 36 28 26 31 32 30 22
25 26 28 28 29 32 34 35 35 33 32 31 32 33 34 33 33 34 33 32 32 32 29 25 27 28 29 24 28 31 39 41 31 30 33 35 33 27
25 27 28 28 30 33 34 34 34 33 31 30 31 32 33 32 33 32 31 30 30 29 27 24 25 25 24 19 18 29 35 41 42 38 31 33 35 26
27 27 26 28 31 34 33 32 33 33 31 30 31 33 31 30 30 29 29 26 25 26 25 23 22 17 15 14 20 25 30 33 37 43 46 33 39 49
27 27 26 28 33 33 32 32 32 30 28 31 33 33 30 27 27 27 25 25 26 22 20 17 18 17 15 19 19 21 26 31 37 39 46 51 44 40
26 26 28 30 34 33 32 31 30 30 31 33 33 31 28 26 22 23 21 23 21 20 17 15 16 16 14 14 19 21 24 28 34 38 41 47 49 43

GFSNE_850_spd_018.txt.gz
Wind_Speed
23 24 26 25 25 27 28 28 29 35 48 32 26 44 42 39 38 32 34 34 32 35 38 40 40 40 39 40 44 46 49 49 47 47 47 46 45 44
25 27 27 27 27 28 28 28 28 31 40 46 49 45 41 45 40 38 38 34 37 37 35 35 35 40 44 50 53 52 48 46 44 43 44 45 46 46
27 28 28 28 29 28 28 29 31 30 38 54 47 48 50 45 47 43 41 36 37 33 33 38 42 49 50 48 47 45 44 44 42 40 42 44 45 45
28 29 30 30 30 29 29 31 30 29 33 43 51 50 48 48 48 46 42 35 42 46 41 42 44 43 44 42 41 41 41 42 43 43 42 41 42 43
29 30 31 31 31 29 26 28 29 31 34 38 47 47 49 44 40 43 46 44 38 36 37 37 38 39 40 41 43 43 44 44 43 42 42 41 41 41
29 30 29 28 26 25 26 27 30 36 38 40 44 41 35 42 41 47 43 42 42 39 40 44 38 38 38 39 39 39 40 40 40 40 41 41 42 43
29 27 26 24 22 23 26 32 32 34 40 34 34 46 41 44 41 46 43 45 47 41 40 45 41 44 46 41 39 37 36 36 36 37 37 38 39 40
29 27 26 25 28 27 28 26 27 34 32 40 41 39 42 43 46 44 44 46 48 41 34 51 46 46 46 44 39 35 36 37 38 38 39 40 41 41
27 28 28 30 28 31 32 33 27 38 36 35 39 38 42 43 42 47 47 45 45 48 42 49 44 48 47 45 40 37 37 38 38 39 40 40 40 41
26 28 31 31 31 32 35 33 39 41 41 33 32 37 37 41 39 39 41 45 46 44 34 42 47 48 47 46 43 36 34 34 34 35 36 37 38 39
28 30 31 29 33 30 32 38 40 42 31 33 30 34 37 32 29 32 38 40 43 46 44 38 42 45 50 47 35 34 32 32 32 33 35 37 38 39
29 35 33 31 29 29 33 35 39 34 36 37 41 35 30 28 30 30 33 37 39 44 42 38 44 42 32 36 35 44 38 30 31 31 33 34 36 38
33 35 38 32 30 31 29 30 28 32 35 36 34 34 33 33 34 34 32 31 36 40 37 34 38 41 31 41 49 42 35 39 36 31 25 24 27 33
32 36 35 32 31 29 26 24 26 28 30 30 33 35 35 36 37 35 32 30 31 34 31 27 33 35 38 45 44 43 40 35 31 24 30 27 27 28
31 32 32 32 31 28 24 24 26 29 29 31 34 34 34 36 37 36 32 32 33 30 28 27 28 31 34 38 39 40 41 41 20 34 30 28 28 25
33 35 33 29 25 24 25 28 29 29 27 31 34 33 34 37 36 34 36 36 37 36 30 28 28 30 31 26 28 34 39 32 42 39 33 31 28 23
30 31 31 28 27 27 29 31 30 30 31 31 32 33 35 36 36 33 34 34 34 37 39 33 30 29 27 20 25 32 40 42 43 43 34 34 32 23
28 28 28 27 28 30 34 35 32 32 32 32 30 32 36 36 36 34 32 33 33 34 37 33 33 36 34 32 24 32 39 43 47 45 33 36 35 21
26 27 27 27 29 31 34 35 35 34 33 31 31 34 36 34 34 33 33 32 32 34 33 29 30 32 32 32 22 26 36 42 45 46 36 36 32 19
25 27 27 27 29 33 35 35 34 33 32 31 34 34 33 32 32 31 31 30 31 33 31 27 26 27 28 25 23 30 29 36 43 46 42 37 29 20
27 27 26 27 29 34 34 33 32 33 34 34 33 33 32 30 29 28 29 27 29 28 28 25 23 22 20 21 27 29 28 28 37 44 48 37 36 34
26 26 26 27 31 33 33 32 31 33 34 33 32 31 28 27 26 28 26 29 27 23 24 22 21 20 19 21 25 28 28 28 32 38 42 42 36 24
25 25 27 28 32 32 31 30 32 34 33 31 31 28 28 26 23 24 24 28 20 20 23 23 22 18 18 19 22 25 27 28 30 33 38 41 41 39

GFSNE_850_spd_021.txt.gz
Wind_Speed
20 21 22 23 24 25 26 27 26 33 42 27 15 29 30 29 29 29 29 30 32 33 35 37 39 39 38 38 37 39 40 42 45 47 49 48 48 47
21 23 24 25 26 26 27 27 28 29 40 38 39 34 32 31 32 30 31 34 34 34 36 37 39 39 41 42 43 46 49 50 49 50 51 49 47 46
22 24 25 26 28 28 28 28 29 29 37 53 40 41 35 33 33 31 31 31 35 42 41 41 41 39 40 41 43 44 44 45 46 45 45 44 44 42
25 26 27 28 28 27 27 27 26 27 31 44 44 41 38 35 33 31 39 39 35 35 36 36 37 39 39 40 41 43 44 45 43 43 44 44 43 43
26 27 28 27 27 27 25 26 27 27 28 34 44 45 40 32 42 42 35 37 33 33 37 36 34 36 37 38 40 41 41 42 42 43 43 43 43 44
26 27 26 25 26 25 25 25 24 30 33 34 39 33 41 44 41 39 39 39 37 35 42 37 35 36 37 38 39 40 39 39 39 39 40 40 41 42
26 26 24 25 23 23 24 26 28 29 34 32 36 39 42 39 38 39 40 43 44 35 42 37 37 45 43 39 37 36 35 35 36 37 37 38 38 39
27 26 26 26 27 22 25 24 26 30 32 39 40 38 39 34 39 40 40 43 45 34 32 50 41 45 43 41 36 35 36 38 38 39 39 39 40 40
25 26 27 26 26 27 29 28 31 25 32 36 35 33 37 38 39 44 45 41 42 46 40 49 45 45 44 44 40 37 37 36 37 38 39 40 41 41
24 25 27 30 27 28 31 32 35 37 30 30 29 35 34 37 39 36 37 40 43 45 32 41 44 42 46 48 38 27 31 32 33 34 36 37 39 40
25 26 28 25 28 27 29 36 34 31 30 29 29 29 35 31 27 28 34 36 41 44 42 32 34 42 47 44 32 39 33 33 31 31 34 35 37 39
23 24 26 27 27 27 31 31 32 32 32 32 34 35 28 25 25 26 30 32 35 39 33 33 40 34 30 29 40 45 36 35 33 32 33 35 36 39
26 25 28 27 27 29 27 27 27 29 31 34 32 29 29 29 29 31 30 29 32 36 36 31 35 37 26 38 50 44 38 40 39 34 28 26 29 30
26 30 30 29 30 28 25 23 24 26 29 27 28 31 32 31 33 32 30 28 28 32 30 25 30 32 35 44 44 43 39 40 37 32 39 37 33 32
28 27 29 31 30 26 22 23 25 25 25 26 31 32 31 32 35 34 31 30 32 29 26 24 25 29 32 38 42 43 40 46 33 42 46 44 42 34
28 32 31 28 24 21 23 26 26 25 25 28 32 31 31 35 36 34 34 34 35 33 30 27 26 29 32 32 32 37 36 37 46 49 48 45 36 35
27 28 29 26 25 25 26 29 28 27 29 29 30 30 33 36 35 32 32 32 32 35 38 32 29 28 25 25 30 30 37 41 43 48 47 43 35 27
25 27 26 25 25 27 30 32 31 30 29 30 30 32 35 35 35 32 29 30 32 34 35 34 33 34 35 30 21 32 35 38 44 47 45 36 30 25
25 25 24 24 26 28 31 33 33 30 31 32 33 33 33 33 31 30 30 30 32 32 32 30 28 29 29 29 37 32 34 36 43 46 46 32 28 26
23 24 24 24 26 29 32 33 32 31 32 33 33 31 30 29 30 29 29 30 32 31 30 30 28 26 26 26 29 35 32 28 35 41 47 32 24 18
24 24 23 24 27 31 32 31 30 33 34 33 29 29 30 31 28 27 28 27 28 26 29 29 27 21 21 21 25 32 33 21 23 33 41 36 31 26
24 24 23 25 28 31 31 30 32 33 32 30 27 29 31 30 28 27 26 28 26 24 25 25 26 22 21 22 24 28 33 28 20 24 26 28 28 22
23 23 24 26 30 30 29 29 32 32 30 28 28 30 30 30 25 24 25 26 25 23 22 25 25 21 19 23 21 25 29 29 29 26 25 29 28 25

GFSNE_850_spd_024.txt.gz
Wind_Speed
17 18 19 19 19 19 20 19 22 32 32 22 15 21 26 26 28 29 30 30 32 35 36 36 37 37 40 41 40 42 41 40 41 40 41 42 43 45
18 19 19 19 21 21 20 20 21 26 37 28 29 27 27 29 28 29 30 33 35 35 37 38 38 37 37 39 39 39 40 41 42 43 45 46 47 50
20 20 21 22 22 20 19 20 22 23 34 39 31 29 30 29 29 29 30 34 38 38 36 37 37 36 36 37 39 40 40 41 42 43 44 44 44 45
20 21 22 21 23 20 19 20 21 23 29 40 36 35 32 31 30 31 36 34 36 34 35 36 37 37 37 36 38 39 40 41 42 42 43 44 44 45
21 22 22 22 21 19 20 21 22 25 28 35 42 39 37 31 36 39 30 33 29 31 35 35 35 37 36 36 37 39 41 42 42 42 43 43 44 44
21 22 22 22 20 21 21 23 25 27 30 34 37 42 30 37 39 34 34 32 35 33 40 35 34 35 35 37 39 39 39 39 40 40 41 42 42 42
20 21 21 22 25 22 22 23 25 30 32 37 37 31 40 38 35 34 36 39 43 34 38 38 35 43 42 38 37 35 34 35 37 38 39 40 41 42
20 21 20 21 20 22 23 24 26 30 34 37 35 37 36 34 34 37 42 36 43 34 30 48 39 43 42 41 36 36 37 37 38 39 40 41 42 43
20 20 20 20 22 22 24 26 28 28 26 35 34 31 34 34 40 40 40 42 40 42 38 48 39 42 42 42 38 36 32 34 35 36 38 40 41 42
18 20 21 21 21 24 28 32 28 31 27 27 28 31 35 36 36 39 38 39 40 40 30 39 42 38 41 46 35 24 31 30 30 31 34 37 38 39
19 20 20 23 23 26 28 33 31 28 25 25 28 30 31 34 29 29 32 33 39 41 41 30 29 40 44 43 33 31 33 35 31 32 35 35 36 39
20 20 21 22 26 26 29 30 31 27 27 32 29 28 25 24 23 22 27 31 35 39 30 29 39 30 27 31 38 41 40 36 35 35 36 33 32 33
21 22 21 24 26 29 27 26 24 27 30 28 25 24 23 22 22 23 27 28 32 37 37 31 36 36 28 39 47 43 42 43 41 40 40 39 34 32
21 22 25 26 29 28 25 22 23 26 22 22 23 25 27 29 29 32 31 31 29 33 33 26 33 34 35 42 44 45 44 40 41 42 45 46 45 42
21 25 27 27 28 25 21 21 21 19 20 23 26 29 29 30 33 36 34 32 31 30 29 27 28 30 31 37 43 47 42 44 38 40 47 47 48 47
24 26 25 26 22 20 19 18 18 19 21 24 26 31 32 33 35 34 33 33 34 33 29 29 27 26 31 35 37 41 38 39 46 46 48 50 46 40
26 22 21 19 19 18 19 20 21 21 23 25 30 33 34 33 34 31 31 31 32 35 38 31 27 27 29 27 33 31 38 42 42 45 45 47 44 29
22 18 18 17 18 19 21 25 26 27 26 30 32 33 32 32 33 32 30 30 33 35 35 34 33 33 33 31 16 27 37 40 43 40 39 40 41 25
17 16 17 17 18 20 23 28 31 28 30 32 33 32 30 31 32 32 30 31 33 35 34 30 28 31 31 33 41 30 35 38 40 39 36 43 36 26
16 16 17 18 21 23 28 30 30 29 32 32 32 29 30 32 33 31 30 31 32 34 33 31 28 29 30 32 36 35 31 34 35 31 36 39 28 20
17 18 19 20 23 27 30 29 28 31 32 32 30 30 31 32 32 31 30 29 29 32 30 30 30 27 26 25 27 32 33 31 26 24 29 32 32 25
19 20 19 21 25 29 29 29 30 32 32 31 30 30 31 31 33 31 28 30 31 29 30 29 29 27 24 24 28 30 32 34 23 15 16 16 24 16
20 20 21 23 26 28 28 29 30 31 30 29 29 30 31 31 30 28 27 27 28 27 26 29 29 26 23 24 23 25 28 29 31 28 20 14 16 11

GFSNE_850_spd_027.txt.gz
Wind_Speed
15 16 17 17 19 20 21 21 21 26 29 24 21 14 27 31 30 30 34 33 31 33 35 35 36 36 37 37 37 37 37 37 37 37 38 40 41 41
16 17 18 19 20 22 21 21 22 25 33 28 28 27 28 30 32 31 33 31 33 35 37 35 36 36 36 36 36 37 37 37 38 38 38 39 40 40
17 18 20 21 22 22 22 23 23 24 31 34 30 28 30 32 32 32 33 39 38 36 36 35 34 34 35 36 36 37 38 38 38 39 39 39 40 40
18 20 21 19 22 23 21 21 24 26 29 36 32 33 32 32 34 35 34 34 39 32 32 34 35 36 36 36 36 37 37 38 38 39 39 41 41 41
19 20 21 20 22 22 21 23 24 26 29 33 37 33 34 35 36 30 39 30 33 33 34 35 36 37 35 35 36 36 37 38 39 39 40 40 41 42
19 20 21 22 22 21 24 24 24 28 29 32 37 41 37 35 30 35 34 33 34 37 37 40 35 35 34 36 37 37 36 35 36 36 37 38 39 40
20 20 20 21 25 23 22 24 27 30 33 37 38 38 35 36 36 31 35 35 44 38 34 40 32 43 42 38 36 34 32 33 35 36 37 39 40 40
21 21 21 21 20 20 22 23 24 29 34 37 40 35 41 34 33 34 43 39 38 42 29 44 41 44 43 41 35 34 35 34 34 35 36 37 38 39
21 21 20 19 21 22 23 23 26 29 28 33 38 34 35 36 41 42 41 39 47 47 41 40 43 47 42 41 40 35 36 33 31 31 32 34 34 36
19 20 21 22 21 23 27 30 33 33 30 30 32 34 37 38 37 37 39 43 43 42 33 36 46 44 42 45 44 31 25 28 28 30 34 37 37 38
17 19 21 22 22 22 28 34 35 35 32 26 28 31 32 32 31 31 34 38 41 46 39 37 36 39 49 48 40 33 36 34 34 32 33 34 36 38
18 20 19 21 21 25 29 34 37 35 32 33 34 33 29 29 25 25 30 34 39 47 38 31 42 34 33 38 37 45 40 37 36 35 34 34 34 39
20 21 22 21 25 27 29 31 32 28 30 33 31 30 31 29 27 26 29 31 37 43 42 33 40 42 31 42 48 47 43 41 40 37 35 35 36 35
22 24 26 27 28 29 28 24 23 25 27 26 30 31 30 31 33 33 33 33 32 37 37 33 37 38 41 44 47 49 44 41 38 41 39 44 45 43
22 24 28 28 26 26 22 22 21 22 24 28 31 31 32 35 35 33 32 31 32 33 32 30 33 34 35 42 47 48 44 44 35 40 45 49 47 45
25 29 29 24 21 21 21 20 21 22 23 28 30 32 34 34 32 31 34 34 35 37 32 31 31 29 33 37 40 45 42 39 43 44 47 48 45 43
27 29 24 21 23 22 21 21 23 25 26 27 31 33 33 32 32 33 34 35 33 36 38 36 33 32 33 34 39 40 39 39 42 44 44 45 45 43
24 22 20 21 21 22 23 26 28 28 28 30 32 32 33 32 35 35 33 33 33 36 37 39 39 38 37 34 25 29 36 40 41 41 40 40 43 42
19 20 21 21 21 22 24 28 31 30 29 31 32 32 32 33 33 35 36 35 36 35 38 39 35 36 36 37 46 29 32 38 42 42 37 38 38 40
17 19 21 21 21 23 26 30 32 30 30 32 32 31 30 32 34 35 36 35 34 37 39 36 34 36 34 37 42 42 33 37 38 42 42 36 33 33
18 20 20 20 21 24 28 30 30 30 31 31 30 30 32 34 34 34 35 33 31 34 36 39 37 29 30 33 34 39 37 31 29 32 33 32 28 33
19 20 19 20 22 26 29 29 31 31 31 30 30 30 34 33 34 34 32 32 32 34 35 36 35 33 32 32 35 37 39 36 29 23 22 23 22 18
20 20 19 21 24 27 28 30 31 30 29 30 33 34 35 33 32 30 30 30 32 31 33 36 35 30 31 30 30 34 36 34 33 34 31 21 15 12